EW0237 Weather Reports


Display with metric or nautical units.
time (UTC)temp
F
wind
direction
speed
MPH
gust
MPH
rain 1hr
in
rain 24hr
in
rain mn
in
humidity
%
barometer
mb
20260510044437 57 0 0.0 0.0 0.00 0.00 0.00 87 1008.5
20260510043437 57 0 0.0 0.0 0.00 0.00 0.00 86 1008.8
20260510042436 58 0 0.0 0.0 0.00 0.00 0.00 86 1008.8
20260510041434 58 0 0.0 0.0 0.00 0.00 0.00 85 1008.8
20260510040434 58 0 0.0 0.0 0.00 0.00 0.00 85 1008.8
20260510035433 59 0 0.0 0.0 0.00 0.00 0.00 84 1008.8
20260510034432 59 0 0.0 0.0 0.00 0.00 0.00 84 1008.8
20260510033432 60 0 0.0 0.0 0.00 0.00 0.00 83 1008.5
20260510032431 60 0 0.0 0.0 0.00 0.00 0.00 83 1008.5
20260510031430 60 0 0.0 0.0 0.00 0.00 0.00 83 1008.5
20260510030430 61 0 0.0 0.0 0.00 0.00 0.00 82 1008.5
20260510025428 61 0 0.0 0.0 0.00 0.00 0.00 82 1008.5
20260510024427 61 0 0.0 0.0 0.00 0.00 0.00 81 1008.5
20260510023427 62 0 0.0 0.0 0.00 0.00 0.00 81 1008.1
20260510022426 62 0 0.0 0.0 0.00 0.00 0.00 80 1008.1
20260510021424 62 0 0.0 0.0 0.00 0.00 0.00 80 1008.1
20260510020422 62 0 0.0 0.0 0.00 0.00 0.00 79 1008.1
20260510015421 62 0 0.0 0.0 0.00 0.00 0.00 79 1008.1
20260510014421 63 0 0.0 0.0 0.00 0.00 0.00 78 1007.8
20260510013420 63 0 0.0 0.0 0.00 0.00 0.00 77 1007.8
20260510012419 63 0 0.0 0.0 0.00 0.00 0.00 77 1007.5
20260510011418 63 0 0.0 0.0 0.00 0.00 0.00 76 1007.5
20260510010347 64 0 0.0 0.0 0.00 0.00 0.00 75 1007.5
20260510005346 64 45 0.0 0.0 0.00 0.00 0.00 75 1007.1
20260510004345 65 135 0.0 0.0 0.00 0.00 0.00 73 1007.1
20260510003344 66 135 0.0 0.0 0.00 0.00 0.00 72 1007.1
20260510002343 67 135 0.0 0.0 0.00 0.00 0.00 71 1007.1
20260510001343 68 135 0.0 0.0 0.00 0.00 0.00 68 1007.1
20260510000311 68 135 0.0 0.0 0.00 0.00 0.00 67 1006.8
20260509235308 69 135 0.0 0.0 0.00 0.00 0.00 65 1006.8
20260509234236 70 135 0.0 0.0 0.00 0.00 0.00 64 1006.8
20260509233203 70 135 0.0 0.0 0.00 0.00 0.00 62 1006.4
20260509232202 71 135 0.0 0.0 0.00 0.00 0.00 61 1006.8
20260509231202 71 135 0.0 1.0 0.00 0.00 0.00 61 1006.4
20260509230201 72 157 0.0 1.0 0.00 0.00 0.00 60 1006.4
20260509225129 72 112 0.0 0.0 0.00 0.00 0.00 60 1006.4
20260509224129 72 112 0.0 0.0 0.00 0.00 0.00 60 1006.4
20260509223127 72 135 1.0 1.0 0.00 0.00 0.00 59 1006.8
20260509222126 72 135 0.0 0.0 0.00 0.00 0.00 59 1006.4
20260509221126 72 135 0.0 0.0 0.00 0.00 0.00 59 1006.8
20260509220053 73 135 0.0 1.0 0.00 0.00 0.00 58 1006.8
20260509215052 73 112 2.0 5.0 0.00 0.00 0.00 56 1006.4
20260509214051 74 135 0.0 0.0 0.00 0.00 0.00 55 1006.4
20260509213050 75 135 0.0 3.0 0.00 0.00 0.00 54 1006.4
20260509212048 74 135 0.0 1.0 0.00 0.00 0.00 54 1006.4
20260509211047 75 247 5.0 5.0 0.00 0.00 0.00 53 1006.4
20260509210046 75 157 5.0 5.0 0.00 0.00 0.00 54 1006.4
20260509205014 74 135 3.0 4.0 0.00 0.00 0.00 55 1006.4
20260509204013 75 202 4.0 4.0 0.00 0.00 0.00 55 1006.4
20260509203013 74 180 2.0 3.0 0.00 0.00 0.00 55 1006.1
20260509201940 74 135 1.0 3.0 0.00 0.00 0.00 56 1006.4
20260509200939 73 135 0.0 4.0 0.00 0.00 0.00 58 1006.4
20260509195939 72 112 0.0 2.0 0.00 0.00 0.00 59 1006.8
20260509194937 72 292 0.0 3.0 0.00 0.00 0.00 59 1006.8
20260509193936 72 315 2.0 2.0 0.00 0.00 0.00 60 1007.1
20260509192936 71 22 0.0 0.0 0.00 0.00 0.00 60 1007.5
20260509191935 71 315 1.0 1.0 0.00 0.00 0.00 60 1007.5
20260509190934 70 157 0.0 5.0 0.00 0.00 0.00 61 1007.5
20260509185933 69 135 2.0 3.0 0.00 0.00 0.00 61 1007.5
20260509184932 69 112 0.0 4.0 0.00 0.00 0.00 61 1007.5
20260509183931 70 157 2.0 5.0 0.00 0.00 0.00 62 1007.8
20260509182858 69 180 5.0 5.0 0.00 0.00 0.00 62 1008.1
20260509181858 69 157 1.0 5.0 0.00 0.00 0.00 61 1008.1
20260509180857 69 157 0.0 7.0 0.00 0.00 0.00 61 1008.1
20260509175856 69 157 2.0 4.0 0.00 0.00 0.00 60 1008.5
20260509174855 69 135 3.0 4.0 0.00 0.00 0.00 60 1008.5
20260509173752 69 157 2.0 2.0 0.00 0.00 0.00 60 1008.8
20260509172752 70 135 0.0 4.0 0.00 0.00 0.00 59 1008.5
20260509171648 70 180 0.0 5.0 0.00 0.00 0.00 59 1008.5
20260509170648 70 135 0.0 3.0 0.00 0.00 0.00 59 1008.5
20260509165646 69 225 0.0 4.0 0.00 0.00 0.00 59 1008.5
20260509164645 69 225 2.0 2.0 0.00 0.00 0.00 61 1008.8
20260509163613 68 270 0.0 0.0 0.00 0.00 0.00 61 1009.1
20260509162509 68 157 0.0 0.0 0.00 0.00 0.00 60 1008.8
20260509161508 68 135 4.0 4.0 0.00 0.00 0.00 61 1008.8
20260509160508 68 112 0.0 2.0 0.00 0.00 0.00 61 1008.8
20260509155507 68 180 0.0 4.0 0.00 0.00 0.00 62 1008.8
20260509154434 67 67 0.0 0.0 0.00 0.00 0.00 62 1009.1
20260509153433 67 112 4.0 4.0 0.00 0.00 0.00 63 1009.1
20260509152433 66 112 0.0 6.0 0.00 0.00 0.00 65 1009.1
20260509151431 65 112 1.0 5.0 0.00 0.00 0.00 65 1009.1
20260509150429 64 247 1.0 4.0 0.00 0.00 0.00 66 1009.5
20260509145429 64 135 3.0 3.0 0.00 0.00 0.00 66 1009.5
20260509144428 63 157 0.0 4.0 0.00 0.00 0.00 67 1009.5
20260509143427 63 180 2.0 4.0 0.00 0.00 0.00 67 1009.8
20260509142425 62 135 6.0 6.0 0.00 0.00 0.00 67 1010.2
20260509141423 62 112 4.0 4.0 0.00 0.00 0.00 67 1010.2
20260509140351 61 225 0.0 4.0 0.00 0.00 0.00 68 1010.2
20260509135351 60 225 2.0 3.0 0.00 0.00 0.00 68 1009.8
20260509134350 60 112 1.0 2.0 0.00 0.00 0.00 69 1009.8
20260509133349 59 90 0.0 6.0 0.00 0.00 0.00 68 1009.8
20260509132349 59 112 2.0 5.0 0.00 0.00 0.00 69 1009.8
20260509131347 59 135 1.0 6.0 0.00 0.00 0.00 68 1009.8
20260509130346 59 112 2.0 7.0 0.00 0.00 0.00 68 1010.2
20260509125346 59 157 0.0 6.0 0.00 0.00 0.00 68 1010.2
20260509124345 59 157 2.0 3.0 0.00 0.00 0.00 68 1010.2
20260509123313 59 225 0.0 6.0 0.00 0.00 0.00 68 1010.2
20260509122313 59 157 3.0 4.0 0.00 0.00 0.00 68 1010.2
20260509121312 59 135 2.0 7.0 0.00 0.00 0.00 68 1010.2
20260509120240 58 135 6.0 6.0 0.00 0.00 0.00 67 1010.2
20260509115240 58 112 0.0 2.0 0.00 0.00 0.00 66 1009.8
20260509114239 58 135 0.0 3.0 0.00 0.00 0.00 65 1010.2
20260509113238 58 157 0.0 7.0 0.00 0.00 0.00 65 1010.2
20260509112238 58 157 3.0 3.0 0.00 0.00 0.00 64 1010.2
20260509111237 57 157 3.0 3.0 0.00 0.00 0.00 64 1009.8
20260509110236 57 157 0.0 3.0 0.00 0.00 0.00 63 1009.8
20260509105235 57 112 2.0 3.0 0.00 0.00 0.00 62 1009.8
20260509104234 57 157 3.0 4.0 0.00 0.00 0.00 61 1009.8
20260509103234 57 112 0.0 5.0 0.00 0.00 0.00 60 1009.8
20260509102233 58 112 1.0 4.0 0.00 0.00 0.00 58 1009.8
20260509101231 58 135 0.0 0.0 0.00 0.00 0.00 58 1009.5
20260509100231 58 112 0.0 2.0 0.00 0.00 0.00 58 1009.5
20260509095229 59 157 2.0 2.0 0.00 0.00 0.00 57 1009.1
20260509094228 59 135 0.0 3.0 0.00 0.00 0.00 57 1009.5
20260509093227 59 135 0.0 2.0 0.00 0.00 0.00 57 1009.5
20260509092227 59 157 0.0 2.0 0.00 0.00 0.00 57 1009.5
20260509091226 58 157 0.0 2.0 0.00 0.00 0.00 58 1009.5
20260509090225 58 180 0.0 2.0 0.00 0.00 0.00 59 1009.8
20260509085225 58 225 0.0 0.0 0.00 0.00 0.00 59 1009.8
20260509084224 58 157 0.0 2.0 0.00 0.00 0.00 59 1009.8
20260509083223 58 112 4.0 4.0 0.00 0.00 0.00 59 1009.8
20260509082221 58 180 3.0 7.0 0.00 0.00 0.00 58 1010.2
20260509081149 58 180 2.0 2.0 0.00 0.00 0.00 58 1010.2
20260509080148 58 180 2.0 5.0 0.00 0.00 0.00 58 1010.2
20260509075148 58 202 0.0 5.0 0.00 0.00 0.00 58 1010.2
20260509074147 58 202 0.0 6.0 0.00 0.00 0.00 58 1010.5
20260509073045 58 112 2.0 2.0 0.00 0.00 0.00 58 1010.5
20260509072044 58 135 1.0 2.0 0.00 0.00 0.00 57 1010.5
20260509071042 58 135 2.0 4.0 0.00 0.00 0.00 57 1010.2
20260509070041 58 202 2.0 3.0 0.00 0.00 0.00 57 1010.2
20260509065041 58 112 1.0 3.0 0.00 0.00 0.00 56 1010.5
20260509064040 58 112 3.0 4.0 0.00 0.00 0.00 56 1010.5
20260509063039 58 180 0.0 5.0 0.00 0.00 0.00 56 1010.5
20260509062039 58 112 3.0 3.0 0.00 0.00 0.00 55 1010.8
20260509061038 58 135 0.0 1.0 0.00 0.00 0.00 55 1010.5
20260509060036 58 135 0.0 0.0 0.00 0.00 0.00 55 1010.8
20260509055035 58 135 2.0 2.0 0.00 0.00 0.00 55 1010.8
20260509054035 58 157 2.0 2.0 0.00 0.00 0.00 55 1010.8
20260509053034 59 112 2.0 2.0 0.00 0.00 0.00 54 1010.8
20260509052033 59 112 0.0 0.0 0.00 0.00 0.00 54 1010.8
20260509051032 59 135 0.0 0.0 0.00 0.00 0.00 53 1010.8
20260509050031 59 225 0.0 0.0 0.00 0.00 0.00 53 1010.8
20260509045031 60 135 0.0 3.0 0.00 0.00 0.00 53 1010.5